Date String (YYYY-MM-DD hh:mm:ss) UTC,Instrument flags,absolute air pressure of the measurement (hPa),sample flow rate (lpm),inlet stack bypass flow (lpm),air temperature of the measurement (°C),ambient temperature measured by the external sensor (°C),aerosol sample conditioner tube jacket temperature (°C),OPC LED temperature (°C),internal box temperature (°C),relative humidity of the measurement (%),span deviation,mass concentration of particles derived from Lorenz-Mie calculation of OPC scattering (μg/m³),mass concentration of particles derived from Lorenz-Mie calculation of OPC scattering (μg/m³),mass concentration of particles derived from Lorenz-Mie calculation of OPC scattering (μg/m³)
DateTimeUTC,F1_M11,P_M11,Q1_M11,Q2_M11,T1_M11,T2_M11,T3_M11,T4_M11,T5_M11,U1_M11,ZSPAN_M11,X0_M11,X2_M11,X1_M11
2024-02-13 13:00:00,SystemResetWarning,0826.7,5.02,000.00,018.2,017.4,000.0,026.9,020.0,15.4,0000.0,0012.56,0007.21,0006.75
2024-02-13 13:01:00,SystemResetWarning,0826.6,5.00,000.00,018.2,017.4,000.0,026.9,020.0,15.4,0000.0,0012.08,0007.18,0006.72
2024-02-13 13:02:00,SystemResetWarning,0826.6,5.00,000.00,018.2,017.4,000.0,026.9,020.0,15.4,0000.0,0012.20,0007.16,0006.69
2024-02-13 13:03:00,SystemResetWarning,0826.6,4.99,000.00,018.2,017.5,000.0,026.9,020.0,15.4,0000.0,0011.99,0007.15,0006.66
2024-02-13 13:04:00,SystemResetWarning,0826.6,4.99,000.00,018.2,017.4,000.0,026.9,020.0,15.3,0000.0,0011.76,0007.11,0006.64
2024-02-13 13:05:00,SystemResetWarning,0826.6,5.01,000.00,018.2,017.4,000.0,026.9,020.0,15.3,0000.0,0011.67,0007.08,0006.61
2024-02-13 13:06:00,SystemResetWarning,0826.6,5.00,000.00,018.2,017.4,000.0,026.9,020.0,15.3,0000.0,0011.09,0007.03,0006.57
2024-02-13 13:07:00,SystemResetWarning,0826.6,4.99,000.00,018.2,017.4,000.0,026.9,020.0,15.4,0000.0,0011.16,0007.00,0006.53
2024-02-13 13:08:00,SystemResetWarning,0826.6,4.99,000.00,018.2,017.4,000.0,026.9,020.0,15.4,0000.0,0011.22,0006.99,0006.50
2024-02-13 13:09:00,SystemResetWarning,0826.6,5.00,000.00,018.2,017.4,000.0,026.9,020.0,15.3,0000.0,0010.83,0006.94,0006.46
2024-02-13 13:10:00,SystemResetWarning,0826.6,5.02,000.00,018.2,017.4,000.0,026.9,020.0,15.3,0000.0,0010.19,0006.91,0006.46
2024-02-13 13:11:00,SystemResetWarning,0826.7,5.01,000.00,018.3,017.8,000.0,027.0,020.2,15.2,0000.0,0009.95,0006.83,0006.43
2024-02-13 13:12:00,SystemResetWarning,0826.8,5.00,000.00,018.5,018.6,000.0,027.0,020.7,15.1,0000.0,0009.74,0006.78,0006.41
2024-02-13 13:13:00,SystemResetWarning,0826.8,5.00,000.00,018.7,019.0,000.0,027.0,020.9,14.9,0000.0,0009.55,0006.75,0006.40
2024-02-13 13:14:00,SystemResetWarning,0826.8,4.99,000.00,018.7,018.9,000.0,027.0,020.7,14.9,0000.0,0009.91,0006.70,0006.38
2024-02-13 13:15:00,SystemResetWarning,0826.8,5.00,000.00,018.7,018.7,000.0,026.9,020.5,14.9,0000.0,0010.36,0006.68,0006.36
2024-02-13 13:16:00,SystemResetWarning,0826.8,5.00,000.00,018.7,018.5,000.0,026.9,020.4,14.9,0000.0,0010.23,0006.63,0006.34
2024-02-13 13:17:00,SystemResetWarning,0826.6,5.00,000.00,018.6,018.4,000.0,026.9,020.4,14.9,0000.0,0010.78,0006.60,0006.32
2024-02-13 13:18:00,SystemResetWarning,0826.6,5.00,000.00,018.6,018.3,000.0,026.9,020.3,15.0,0000.0,0010.88,0006.59,0006.31
2024-02-13 13:19:00,SystemResetWarning,0826.6,5.00,000.00,018.6,018.2,000.0,026.9,020.2,15.0,0000.0,0010.77,0006.55,0006.30
2024-02-13 13:20:00,SystemResetWarning,0826.6,4.99,000.00,018.5,018.1,000.0,026.9,020.2,15.0,0000.0,0010.78,0006.53,0006.30
2024-02-13 13:21:00,SystemResetWarning,0826.7,5.00,000.00,018.5,018.0,000.0,026.9,020.2,15.0,0000.0,0010.79,0006.52,0006.28
2024-02-13 13:22:00,SystemResetWarning,0826.8,5.01,000.00,018.5,018.0,000.0,026.9,020.2,15.0,0000.0,0010.81,0006.51,0006.26
2024-02-13 13:23:00,SystemResetWarning,0826.8,5.01,000.00,018.5,018.0,000.0,026.9,020.2,15.0,0000.0,0010.75,0006.48,0006.24
2024-02-13 13:24:00,SystemResetWarning,0826.8,5.00,000.00,018.5,017.9,000.0,026.9,020.1,15.1,0000.0,0010.71,0006.43,0006.20
2024-02-13 13:25:00,SystemResetWarning,0826.8,4.99,000.00,018.4,017.9,000.0,026.9,020.1,15.1,0000.0,0010.16,0006.40,0006.17
2024-02-13 13:26:00,SystemResetWarning,0826.8,4.99,000.00,018.4,017.9,000.0,026.9,020.1,15.1,0000.0,0009.72,0006.38,0006.14
2024-02-13 13:27:00,SystemResetWarning,0826.7,5.00,000.00,018.4,017.9,000.0,026.9,020.1,15.1,0000.0,0009.84,0006.36,0006.10
2024-02-13 13:28:00,SystemResetWarning,0826.6,5.01,000.00,018.4,017.8,000.0,026.9,020.1,15.1,0000.0,0009.54,0006.35,0006.09
2024-02-13 13:29:00,SystemResetWarning,0826.7,5.01,000.00,018.4,017.8,000.0,026.8,020.0,15.1,0000.0,0009.02,0006.33,0006.07
2024-02-13 13:30:00,SystemResetWarning,0826.8,5.00,000.00,018.3,017.8,000.0,026.8,020.0,15.2,0000.0,0009.06,0006.33,0006.05
2024-02-13 13:31:00,SystemResetWarning,0826.8,5.00,000.00,018.3,017.8,000.0,026.8,020.0,15.2,0000.0,0009.04,0006.31,0006.03
2024-02-13 13:32:00,SystemResetWarning,0826.8,4.99,000.00,018.3,017.8,000.0,026.8,020.0,15.2,0000.0,0010.26,0006.29,0005.99
2024-02-13 13:33:00,SystemResetWarning,0826.8,5.00,000.00,018.3,017.8,000.0,026.8,020.0,15.2,0000.0,0010.26,0006.24,0005.96
2024-02-13 13:34:00,SystemResetWarning,0826.8,5.00,000.00,018.3,017.8,000.0,026.8,020.0,15.2,0000.0,0010.25,0006.24,0005.95
2024-02-13 13:35:00,SystemResetWarning,0826.8,5.00,000.00,018.3,017.8,000.0,026.8,020.0,15.2,0000.0,0010.29,0006.23,0005.92
2024-02-13 13:36:00,SystemResetWarning,0826.8,5.00,000.00,018.3,017.8,000.0,026.8,020.0,15.3,0000.0,0010.43,0006.23,0005.90
2024-02-13 13:37:00,SystemResetWarning,0826.8,4.99,000.00,018.3,017.7,000.0,026.8,020.0,15.3,0000.0,0010.58,0006.20,0005.90
2024-02-13 13:38:00,SystemResetWarning,0826.8,4.99,000.00,018.3,017.7,000.0,026.8,020.0,15.3,0000.0,0010.42,0006.19,0005.90
2024-02-13 13:39:00,SystemResetWarning,0826.8,4.99,000.00,018.3,017.7,000.0,026.8,020.0,15.3,0000.0,0010.45,0006.20,0005.89
2024-02-13 13:40:00,SystemResetWarning,0826.7,5.00,000.00,018.2,017.7,000.0,026.8,020.0,15.3,0000.0,0010.48,0006.20,0005.88
2024-02-13 13:41:00,SystemResetWarning,0826.8,5.01,000.00,018.2,017.7,000.0,026.8,020.0,15.3,0000.0,0010.46,0006.19,0005.87
2024-02-13 13:42:00,SystemResetWarning,0826.8,5.00,000.00,018.2,017.7,000.0,026.8,020.0,15.3,0000.0,0010.60,0006.20,0005.87
2024-02-13 13:43:00,SystemResetWarning,0826.8,5.01,000.00,018.2,017.7,000.0,026.8,020.0,15.3,0000.0,0009.67,0006.21,0005.89
2024-02-13 13:44:00,SystemResetWarning,0826.8,5.00,000.00,018.2,017.7,000.0,026.8,020.0,15.3,0000.0,0009.49,0006.27,0005.91
2024-02-13 13:45:00,SystemResetWarning,0826.8,5.00,000.00,018.2,017.7,000.0,026.8,020.0,15.3,0000.0,0009.66,0006.30,0005.93
2024-02-13 13:46:00,SystemResetWarning,0826.7,5.00,000.00,018.2,017.6,000.0,026.8,020.0,15.2,0000.0,0009.99,0006.31,0005.96
2024-02-13 13:47:00,SystemResetWarning,0826.8,5.00,000.00,018.2,017.6,000.0,026.8,020.0,15.1,0000.0,0009.96,0006.32,0005.98
2024-02-13 13:48:00,SystemResetWarning,0826.8,4.99,000.00,018.2,017.6,000.0,026.8,020.0,14.7,0000.0,0009.67,0006.33,0005.98
2024-02-13 13:49:00,SystemResetWarning,0826.8,5.00,000.00,018.2,017.6,000.0,026.8,020.0,14.3,0000.0,0009.66,0006.33,0005.99
2024-02-13 13:50:00,SystemResetWarning,0826.8,5.00,000.00,018.2,017.6,000.0,026.8,020.0,14.5,0000.0,0009.60,0006.30,0006.00
2024-02-13 13:51:00,SystemResetWarning,0826.8,5.00,000.00,018.2,017.6,000.0,026.8,020.0,14.9,0000.0,0009.87,0006.31,0006.01
2024-02-13 13:52:00,SystemResetWarning,0826.8,5.00,000.00,018.2,017.6,000.0,026.8,020.0,15.1,0000.0,0010.00,0006.30,0006.01
2024-02-13 13:53:00,SystemResetWarning,0826.8,5.00,000.00,018.2,017.6,000.0,026.8,020.0,15.1,0000.0,0010.13,0006.29,0006.00
2024-02-13 13:54:00,SystemResetWarning,0826.8,5.00,000.00,018.2,017.6,000.0,026.8,020.0,15.1,0000.0,0010.15,0006.23,0005.94
2024-02-13 13:55:00,SystemResetWarning,0826.8,5.00,000.00,018.2,017.6,000.0,026.8,020.0,15.1,0000.0,0010.58,0006.12,0005.85
2024-02-13 13:56:00,SystemResetWarning,0826.8,5.00,000.00,018.2,017.6,000.0,026.8,020.0,15.1,0000.0,0010.42,0006.04,0005.76
2024-02-13 13:57:00,SystemResetWarning,0826.8,5.00,000.00,018.2,017.6,000.0,026.8,020.0,15.2,0000.0,0010.06,0006.00,0005.71
2024-02-13 13:58:00,SystemResetWarning,0826.8,4.99,000.00,018.2,017.6,000.0,026.9,020.0,15.2,0000.0,0010.09,0006.00,0005.70
2024-02-13 13:59:00,SystemResetWarning,0826.7,5.00,000.00,018.2,017.6,000.0,026.8,020.0,15.2,0000.0,0010.13,0005.98,0005.70
